logo tempoitalia

Diretta Meteo Lipsia-Schkeuditz, Germanialunedì 31 agosto ore 07:20

Mappa
Sereno 16 °C Pioggia 24 Ore: T.min 15 T.max 26
Ponente Ovest/Sud-Ovest Km/h 16.7 Punto di rugiada: 14 °C Umidità: 87% Visibilità: 10 Km
Il sole sorge alle: 06:22 Il sole tramonta alle: 20:00
31 Agosto 2026 07:20 tempo osservato: Pioggia Pioggia 16 87 1012 vento: Nord O/SO 16.7
31 Agosto 2026 06:50 tempo osservato: Pioggia Pioggia 16 87 1012 vento: Nord SO 18.5
31 Agosto 2026 06:20 tempo osservato: Pioggia Pioggia 17 72 1012 vento: Nord S/SO 22.2
31 Agosto 2026 05:50 tempo osservato: Sereno Sereno 17 72 1011 vento: Nord S/SO 9.3
31 Agosto 2026 05:20 tempo osservato: Sereno Sereno 17 77 1011 vento: Nord S 13
31 Agosto 2026 04:50 tempo osservato: Sereno Sereno 16 82 1011 vento: Nord S 13
31 Agosto 2026 04:20 tempo osservato: Sereno Sereno 16 82 1012 vento: Nord S 13
31 Agosto 2026 03:50 tempo osservato: Sereno Sereno 16 77 1012 vento: Nord S/SE 13
31 Agosto 2026 03:20 tempo osservato: Sereno Sereno 16 77 1012 vento: Nord S/SE 13
31 Agosto 2026 02:50 tempo osservato: Sereno Sereno 15 82 1012 vento: Nord SE 13
31 Agosto 2026 02:20 tempo osservato: Sereno Sereno 17 72 1013 vento: Nord SE 11.1
31 Agosto 2026 01:50 tempo osservato: Sereno Sereno 16 77 1013 vento: Nord SE 13
31 Agosto 2026 01:20 tempo osservato: Sereno Sereno 16 77 1013 vento: Nord SE 11.1
31 Agosto 2026 00:50 tempo osservato: Sereno Sereno 17 67 1013 vento: Nord S/SE 7.4
31 Agosto 2026 00:20 tempo osservato: Sereno Sereno 17 67 1013 vento: Nord N 5.5
30 Agosto 2026 23:50 tempo osservato: Sereno Sereno 17 67 1013 vento: Nord N 5.5
30 Agosto 2026 23:20 tempo osservato: Sereno Sereno 17 67 1013 vento: Nord N 1.8
30 Agosto 2026 22:50 tempo osservato: Sereno Sereno 18 63 1013 vento: Nord N 3.7
30 Agosto 2026 22:20 tempo osservato: Sereno Sereno 19 59 1013 vento: Nord N 1.8
30 Agosto 2026 21:50 tempo osservato: Sereno Sereno 19 59 1013 vento: Nord N 1.8
30 Agosto 2026 21:20 tempo osservato: Sereno Sereno 20 56 1013 vento: Nord N 3.7
30 Agosto 2026 20:50 tempo osservato: Sereno Sereno 20 56 1013 vento: Nord N 5.5
30 Agosto 2026 20:20 tempo osservato: Sereno Sereno 21 52 1013 vento: Nord O 11.1
30 Agosto 2026 19:50 tempo osservato: Sereno Sereno 22 49 1013 vento: Nord O 13
30 Agosto 2026 19:20 tempo osservato: Sereno Sereno 23 43 1013 vento: Nord O 20.3
30 Agosto 2026 18:50 tempo osservato: Sereno Sereno 24 43 1012 vento: Nord O 20.3
30 Agosto 2026 18:20 tempo osservato: Sereno Sereno 24 43 1012 vento: Nord O 24
30 Agosto 2026 17:50 tempo osservato: Sereno Sereno 25 44 1012 vento: Nord O 29.6
30 Agosto 2026 17:20 tempo osservato: Sereno Sereno 26 39 1012 vento: Nord O 35.2
30 Agosto 2026 16:50 tempo osservato: Sereno Sereno 25 44 1012 vento: Nord O 31.5
30 Agosto 2026 16:20 tempo osservato: Sereno Sereno 26 41 1012 vento: Nord O/SO 35.2
30 Agosto 2026 15:50 tempo osservato: Sereno Sereno 26 41 1012 vento: Nord O/SO 37
30 Agosto 2026 15:20 tempo osservato: Sereno Sereno 26 44 1012 vento: Nord O/SO 37
30 Agosto 2026 14:50 tempo osservato: Nuvoloso Nuvoloso 26 44 1012 vento: Nord O/SO 33.3
30 Agosto 2026 14:20 tempo osservato: Poco Nuvoloso Poco Nuvoloso 25 50 1012 vento: Nord O/SO 31.5
30 Agosto 2026 13:50 tempo osservato: Sereno Sereno 24 53 1012 vento: Nord O 33.3
30 Agosto 2026 13:20 tempo osservato: Molto Nuvoloso Molto Nuvoloso 21 64 1012 vento: Nord O/SO 29.6
30 Agosto 2026 12:50 tempo osservato: Molto Nuvoloso Molto Nuvoloso 21 60 1013 vento: Nord O/SO 33.3
30 Agosto 2026 12:20 tempo osservato: Molto Nuvoloso Molto Nuvoloso 21 68 1013 vento: Nord O 29.6
30 Agosto 2026 11:50 tempo osservato: Molto Nuvoloso Molto Nuvoloso 23 56 1012 vento: Nord O/SO 24
30 Agosto 2026 11:20 tempo osservato: Nuvoloso Nuvoloso 24 53 1012 vento: Nord SO 29.6
30 Agosto 2026 10:50 tempo osservato: Nuvoloso Nuvoloso 24 53 1012 vento: Nord SO 31.5
30 Agosto 2026 10:20 tempo osservato: Poco Nuvoloso Poco Nuvoloso 23 56 1012 vento: Nord O/SO 33.3
30 Agosto 2026 09:50 tempo osservato: Poco Nuvoloso Poco Nuvoloso 23 56 1011 vento: Nord SO 31.5
30 Agosto 2026 09:20 tempo osservato: Sereno Sereno 22 60 1011 vento: Nord S/SO 27.8
30 Agosto 2026 08:50 tempo osservato: Sereno Sereno 22 60 1011 vento: Nord S/SO 31.5
30 Agosto 2026 08:20 tempo osservato: Sereno Sereno 21 64 1011 vento: Nord S/SO 24
30 Agosto 2026 07:50 tempo osservato: Sereno Sereno 20 64 1011 vento: Nord S/SO 20.3